[[{"header":{"parameterUnit":"m.s-1","parameterCategory":2,"la1":30.2991,"la2":30.254,"lo1":-89.0895,"lo2":-89.0444,"dy":0.0017,"dx":0.0017,"nx":28,"ny":28,"refTime":"2023-08-10T09:00:00:Z","depth":"0","parameterNumber":2,"parameterNumberName":"U-component_of_CURRENTS"},"data":[0,0,0,0,0,0,0,0,0,0,0,0,0,0,0,0,0,0,0,0,0,0,0,0,0,0,0,0,0,0,0,0,0,0,0,0,0,0,0,0,0,0,0,0,0,0,0,0,0,0,0,0,0,0,0,0,0,0,0.4314,0.4314,0,0.4325,0.4325,0.4325,0.4269,0.4267,0.4266,0.4264,0.4335,0.4338,0.4342,0,0,0,0,0,0,0,0,0,0,0,0,0,0.4284,0.4284,0.4314,0.4314,0.4314,0.4325,0.4325,0.4325,0.4269,0.4267,0.4265,0.4263,0.4334,0.4338,0.4342,0,0,0,0,0,0,0,0,0,0,0,0,0,0.4296,0.4284,0.4314,0.4287,0.4284,0.4325,0.4325,0.4325,0.427,0.4267,0.4265,0.4262,0.4333,0.4338,0.4343,0.4425,0,0,0.4359,0.4361,0,0,0,0,0,0,0,0,0.4296,0.4298,0.4291,0.4289,0.4286,0.4292,0.434,0.4361,0.427,0.4276,0.4264,0.4261,0.4328,0.4333,0.4341,0.4429,0.4432,0.4359,0.4362,0.4364,0.4366,0,0,0,0,0,0,0,0.4295,0.4297,0.4319,0.4291,0.4288,0.4288,0.4286,0.4344,0.4318,0.4275,0.4271,0.4272,0.4327,0.4336,0.4342,0.4433,0.4359,0.4364,0.4367,0.4369,0.4574,0.4577,0,0,0,0,0,0,0.4293,0.4296,0.4318,0.4319,0.4284,0.429,0.4289,0.4293,0.4315,0.4316,0.4274,0.4269,0.4328,0.4336,0.4345,0.4411,0.4364,0.4369,0.4372,0.4572,0.4575,0.4577,0,0,0,0,0,0,0.4293,0.4295,0.4318,0.4307,0.4309,0.4293,0.4299,0.4295,0.4285,0.4314,0.4315,0.4265,0.4327,0.4338,0.4395,0.4414,0.4372,0.4376,0.4569,0.4573,0.4576,0.4565,0,0,0,0,0,0,0.4292,0.4295,0.4301,0.4307,0.431,0.4342,0.4301,0.4297,0.429,0.4283,0.4308,0.4312,0.4326,0.4388,0.4401,0.4421,0.438,0.4566,0.4571,0.4575,0.4562,0.4567,0.4572,0,0,0,0,0,0.4291,0.4317,0.4302,0.4304,0.4318,0.4343,0.4345,0.4325,0.4292,0.4303,0.4318,0.431,0.4424,0.4394,0.4409,0.443,0.4564,0.457,0.4575,0.456,0.4566,0.4572,0,0,0,0,0,0,0.4361,0.4314,0.4297,0.4322,0.4328,0.4333,0.4345,0.4325,0.4344,0.4339,0.4346,0.4355,0.4415,0.4438,0.4403,0.4507,0.4492,0.4501,0.4476,0.4483,0.4487,0.4471,0.4385,0,0,0,0,0,0.4368,0.4339,0.4334,0.4359,0.4357,0.4347,0.4352,0.4342,0.4358,0.4359,0.4375,0.4408,0.4456,0.4476,0.4527,0.4588,0.4581,0.4614,0.4618,0.4622,0.4622,0.4647,0.4653,0.4595,0.4595,0.4595,0,0,0.4405,0.4377,0.4366,0.4365,0.4364,0.4366,0.4344,0.4361,0.4356,0.4373,0.4387,0.4434,0.448,0.4541,0.457,0.4555,0.463,0.4629,0.4631,0.4629,0.4653,0.4658,0.4663,0.4598,0.4598,0.4597,0,0,0.4447,0.4439,0.4412,0.4412,0.4402,0.4397,0.4396,0.4399,0.4389,0.4425,0.4436,0.4492,0.4553,0.4589,0.4614,0.4686,0.4662,0.4704,0.4707,0.4731,0.4734,0.4738,0.47,0.47,0.4698,0.4698,0.4698,0,0.4491,0.4457,0.4426,0.4413,0.4404,0.4402,0.4396,0.4405,0.4427,0.4424,0.4428,0.4522,0.4573,0.4629,0.4664,0.4693,0.4681,0.467,0.4732,0.4736,0.4739,0.47,0.4701,0.4698,0.4698,0.4698,0.4698,0,0.4498,0.4478,0.4482,0.4429,0.4429,0.4441,0.4432,0.4439,0.4428,0.443,0.4481,0.4558,0.4599,0.4643,0.4681,0.4741,0.4713,0.4735,0.4702,0.4743,0.4701,0.4701,0.4698,0.4698,0.4698,0.4698,0,0,0.4564,0.4486,0.4484,0.4438,0.4431,0.4421,0.4429,0.4419,0.4392,0.4451,0.4434,0.4562,0.4588,0.4623,0.468,0.4729,0.4756,0.4749,0.475,0.4684,0.476,0.4423,0.4391,0.4783,0.4784,0.4785,0.4705,0,0.4571,0.4509,0.448,0.4442,0.4408,0.4402,0.4396,0.4394,0.4393,0.4392,0.4471,0.4497,0.4579,0.4601,0.4669,0.4747,0.4763,0.4773,0.4755,0.4753,0.4427,0.4383,0.42,0.4085,0.4705,0.4705,0.4705,0,0.4564,0.4513,0.4455,0.4379,0.4366,0.4355,0.4303,0.4299,0.4315,0.4315,0.4362,0.441,0.4505,0.4563,0.4675,0.4674,0.4716,0.4768,0.4766,0.4456,0.4417,0.4157,0.4062,0.3993,0.4705,0.4705,0.4705,0,0.4547,0.4487,0.4416,0.4401,0.434,0.4312,0.4287,0.4277,0.4245,0.4261,0.4248,0.4346,0.4377,0.4484,0.4567,0.4635,0.4644,0.4739,0.4462,0.4438,0.4276,0.4232,0.4086,0.4789,0.479,0.479,0.479,0,0.4528,0.4477,0.4395,0.436,0.4285,0.4263,0.4194,0.4184,0.4166,0.4103,0.4204,0.4182,0.4366,0.4386,0.4504,0.4413,0.457,0.4423,0.4384,0.4259,0.4217,0.4143,0.413,0.4787,0.4787,0.4788,0.4789,0,0.4499,0.4453,0.4369,0.4293,0.4265,0.4206,0.4123,0.4066,0.4068,0.3991,0.3992,0.4055,0.404,0.4135,0.4253,0.4248,0.4095,0.4184,0.3967,0.3899,0.3538,0.353,0.3166,0.3105,0.3875,0.3866,0.3858,0,0.4457,0.441,0.431,0.4249,0.4207,0.4122,0.4053,0.4019,0.3943,0.389,0.384,0.3809,0.3724,0.3692,0.3682,0.3663,0.3717,0.3461,0.3551,0.342,0.3393,0.3326,0.3306,0.3362,0.3351,0.3342,0.3335,0,0.4378,0.4351,0.4283,0.416,0.4069,0.3974,0.3871,0.3801,0.3726,0.3644,0.3502,0.3433,0.3319,0.316,0.3064,0.3095,0.3227,0.3261,0.3245,0.3019,0.2829,0.2784,0.3491,0.3254,0.3262,0.3268,0.3273,0.3276,0.4307,0.4242,0.4138,0.4,0.3919,0.3785,0.3632,0.3519,0.3355,0.3096,0.3177,0.2924,0.2812,0.2634,0.2608,0.243,0.2572,0.2446,0.2463,0.2421,0.2274,0.2701,0.2329,0.2331,0.2334,0.2336,0.2337,0,0.4122,0.4051,0.3959,0.377,0.3606,0.3617,0.3443,0.3222,0.2921,0.2762,0.2554,0.2289,0.2099,0.2044,0.1872,0.174,0.1799,0.1704,0.1721,0.1769,0.2267,0.2158,0.1584,0.1584,0.1584,0.1584,0.1584,0.1584,0.4002,0.384,0.3771,0.345,0.3327,0.3036,0.2889,0.2618,0.2436,0.2,0.1738,0.1667,0.1644,0.1428,0.1288,0.1288,0.1308,0.1072,0.1199,0.1711,0.179,0.1865,0.1764,0.1117,0.1116,0.0692,0.0689,0.0686]},{"header":{"parameterUnit":"m.s-1","parameterCategory":2,"la1":30.2991,"la2":30.254,"lo1":-89.0895,"lo2":-89.0444,"dy":0.0017,"dx":0.0017,"nx":28,"ny":28,"refTime":"2023-08-10T09:00:00:Z","depth":"0","parameterNumber":3,"parameterNumberName":"V-component_of_CURRENTS"},"data":[0,0,0,0,0,0,0,0,0,0,0,0,0,0,0,0,0,0,0,0,0,0,0,0,0,0,0,0,0,0,0,0,0,0,0,0,0,0,0,0,0,0,0,0,0,0,0,0,0,0,0,0,0,0,0,0,0,0,0.0664,0.0665,0,0.0812,0.0815,0.0817,0.0863,0.0861,0.0859,0.0858,0.1078,0.1085,0.1093,0,0,0,0,0,0,0,0,0,0,0,0,0,0.0534,0.0536,0.0664,0.0665,0.0666,0.0812,0.0815,0.0818,0.0863,0.0861,0.0859,0.0857,0.1076,0.1084,0.1093,0,0,0,0,0,0,0,0,0,0,0,0,0,0.0638,0.0537,0.0664,0.0698,0.0701,0.0811,0.0815,0.0819,0.0864,0.0861,0.0858,0.0856,0.1073,0.1084,0.1095,0.1217,0,0,0.1129,0.1134,0,0,0,0,0,0,0,0,0.0632,0.0644,0.0692,0.0695,0.07,0.0806,0.0849,0.0952,0.0864,0.0814,0.0858,0.0854,0.0989,0.1007,0.1055,0.1228,0.1237,0.113,0.1137,0.1142,0.1145,0,0,0,0,0,0,0,0.0624,0.0638,0.0734,0.0693,0.0697,0.0743,0.0755,0.087,0.0925,0.0818,0.0819,0.0818,0.0992,0.1044,0.1061,0.124,0.113,0.114,0.1147,0.1151,0.1535,0.1538,0,0,0,0,0,0,0.0581,0.0631,0.0729,0.0738,0.0646,0.0746,0.076,0.0784,0.0922,0.0936,0.082,0.082,0.1026,0.1048,0.1069,0.1274,0.1142,0.1152,0.1159,0.1531,0.1535,0.1539,0,0,0,0,0,0,0.0578,0.0589,0.0723,0.0677,0.0695,0.0749,0.0777,0.0788,0.0828,0.092,0.0938,0.0844,0.1025,0.1053,0.119,0.128,0.1157,0.1168,0.1527,0.1532,0.1537,0.1651,0,0,0,0,0,0,0.0574,0.0588,0.0604,0.0675,0.0696,0.0796,0.0779,0.0792,0.0826,0.0827,0.0948,0.0966,0.1025,0.1173,0.1201,0.1293,0.1176,0.1523,0.153,0.1536,0.1642,0.1659,0.1673,0,0,0,0,0,0.057,0.0598,0.0605,0.0616,0.0713,0.0797,0.0816,0.0851,0.0829,0.0873,0.0955,0.0962,0.1232,0.1186,0.1218,0.1315,0.152,0.1528,0.1535,0.1636,0.1656,0.1673,0,0,0,0,0,0,0.0553,0.0606,0.0615,0.0659,0.0722,0.08,0.0833,0.0851,0.0952,0.0955,0.1024,0.1053,0.1202,0.124,0.1186,0.1439,0.1372,0.1386,0.1437,0.1457,0.1471,0.1467,0.1186,0,0,0,0,0,0.0553,0.0587,0.0649,0.0686,0.0712,0.0773,0.0809,0.0843,0.0924,0.0963,0.1052,0.1149,0.1266,0.1338,0.144,0.1596,0.1548,0.1671,0.1686,0.1699,0.1715,0.1691,0.1704,0.1564,0.1564,0.1564,0,0,0.0557,0.0586,0.0607,0.0684,0.0732,0.082,0.0792,0.0859,0.0953,0.0978,0.114,0.1209,0.1314,0.1486,0.1555,0.1529,0.1713,0.1709,0.1719,0.1729,0.17,0.1713,0.1725,0.157,0.1569,0.1568,0,0,0.0579,0.0608,0.0647,0.0715,0.0785,0.0845,0.0858,0.0958,0.1019,0.1179,0.1215,0.1337,0.1518,0.1623,0.1694,0.1855,0.1784,0.1874,0.1975,0.1952,0.1962,0.1971,0.1912,0.1915,0.1895,0.1895,0.1895,0,0.0576,0.0649,0.0675,0.0747,0.0813,0.0855,0.0946,0.1037,0.1178,0.1252,0.124,0.151,0.1597,0.18,0.1866,0.1896,0.1833,0.1899,0.1968,0.1976,0.1982,0.192,0.1921,0.1902,0.1901,0.19,0.19,0,0.065,0.0719,0.0752,0.0865,0.0942,0.1031,0.1143,0.1243,0.1312,0.1405,0.1596,0.1715,0.1859,0.1921,0.1963,0.2086,0.2007,0.1973,0.1911,0.2002,0.1932,0.1931,0.1911,0.1908,0.1907,0.1905,0,0,0.0619,0.0773,0.0788,0.0866,0.102,0.1093,0.1257,0.1423,0.1522,0.1672,0.1804,0.2033,0.2047,0.2125,0.2175,0.2198,0.2208,0.2115,0.2111,0.2039,0.2106,0.2024,0.2013,0.2155,0.2156,0.2157,0.2031,0,0.0674,0.0816,0.0894,0.1065,0.1156,0.1272,0.1421,0.1576,0.1697,0.184,0.1967,0.2101,0.2136,0.2185,0.223,0.2207,0.2212,0.2243,0.2045,0.204,0.194,0.2013,0.1918,0.1795,0.2029,0.2029,0.2029,0,0.073,0.0819,0.0974,0.1171,0.1221,0.1332,0.1549,0.1688,0.1891,0.1975,0.2118,0.2177,0.2304,0.2264,0.2283,0.228,0.2213,0.2178,0.217,0.2056,0.1957,0.1748,0.1783,0.1836,0.2026,0.2026,0.2026,0,0.0693,0.0886,0.1005,0.108,0.13,0.1392,0.1514,0.1724,0.1837,0.2018,0.2075,0.2231,0.2256,0.2241,0.2212,0.2215,0.2153,0.2134,0.2002,0.1992,0.186,0.1838,0.1911,0.2111,0.2111,0.2112,0.2112,0,0.0736,0.0834,0.0989,0.1063,0.1216,0.1365,0.1535,0.1677,0.1849,0.1963,0.2102,0.2177,0.2234,0.2227,0.2197,0.2095,0.2127,0.203,0.1969,0.1897,0.188,0.1876,0.1913,0.2107,0.2108,0.2109,0.211,0,0.0692,0.0798,0.0938,0.1138,0.1199,0.1299,0.1511,0.1628,0.177,0.1897,0.1931,0.2094,0.2078,0.2108,0.2061,0.2033,0.1953,0.191,0.1814,0.1746,0.1685,0.173,0.1668,0.1725,0.1749,0.1746,0.1744,0,0.069,0.0751,0.0943,0.1024,0.1114,0.1268,0.138,0.1566,0.1661,0.1841,0.1875,0.1923,0.1967,0.1897,0.1836,0.1744,0.1826,0.1612,0.1644,0.169,0.1695,0.1712,0.1771,0.1498,0.1494,0.1491,0.1488,0,0.0684,0.0738,0.0855,0.0999,0.1112,0.1245,0.1389,0.1435,0.162,0.168,0.1752,0.1792,0.1759,0.1663,0.1571,0.1527,0.1634,0.154,0.1618,0.1547,0.1539,0.1559,0.156,0.1459,0.1462,0.1464,0.1465,0.1467,0.0669,0.0732,0.0868,0.1002,0.1123,0.1208,0.1255,0.1361,0.1434,0.1499,0.1576,0.1587,0.1554,0.1425,0.1372,0.1295,0.1389,0.13,0.1354,0.1373,0.1438,0.1371,0.1192,0.1193,0.1194,0.1195,0.1196,0,0.0659,0.0744,0.0872,0.1016,0.1091,0.1162,0.1259,0.1255,0.1248,0.1342,0.1353,0.1329,0.1243,0.1237,0.113,0.1127,0.1172,0.1182,0.1224,0.1304,0.1245,0.125,0.1038,0.1038,0.1038,0.1038,0.1038,0.1038,0.067,0.0764,0.0827,0.0938,0.1012,0.1034,0.1038,0.1025,0.1074,0.107,0.1085,0.1145,0.1261,0.1114,0.1112,0.1119,0.1273,0.1161,0.134,0.1329,0.1347,0.1364,0.1382,0.1201,0.1201,0.1366,0.1368,0.1369]}],[{"header":{"parameterUnit":"m.s-1","parameterCategory":2,"la1":30.2991,"la2":30.254,"lo1":-89.0895,"lo2":-89.0444,"dy":0.0017,"dx":0.0017,"nx":28,"ny":28,"refTime":"2023-08-10T09:00:00:Z","depth":"2","parameterNumber":2,"parameterNumberName":"U-component_of_CURRENTS"},"data":[0,0,0,0,0,0,0,0,0,0,0,0,0,0,0,0,0,0,0,0,0,0,0,0,0,0,0,0,0,0,0,0,0,0,0,0,0,0,0,0,0,0,0,0,0,0,0,0,0,0,0,0,0,0,0,0,0,0,0.2249,0.2253,0,0.234,0.2337,0.2335,0.2261,0.2262,0.2263,0.2264,0.2507,0.2512,0.2517,0,0,0,0,0,0,0,0,0,0,0,0,0,0.2043,0.2043,0.2248,0.2253,0.2259,0.234,0.2337,0.2334,0.2261,0.2262,0.2263,0.2265,0.2505,0.2511,0.2518,0,0,0,0,0,0,0,0,0,0,0,0,0,0.2089,0.2043,0.2247,0.2266,0.2271,0.2341,0.2337,0.2333,0.226,0.2262,0.2264,0.2265,0.2503,0.2511,0.2519,0.2538,0,0,0.2544,0.2547,0,0,0,0,0,0,0,0,0.2086,0.2091,0.2258,0.2265,0.2272,0.2331,0.2357,0.2425,0.226,0.2216,0.2264,0.2266,0.2491,0.25,0.2446,0.2549,0.2559,0.2545,0.255,0.2553,0.2555,0,0,0,0,0,0,0,0.2083,0.2088,0.2238,0.2264,0.2274,0.2285,0.2287,0.2364,0.2311,0.222,0.2227,0.2309,0.2489,0.2438,0.2453,0.2563,0.2544,0.2552,0.2557,0.256,0.3127,0.3136,0,0,0,0,0,0,0.216,0.2084,0.2236,0.2245,0.2233,0.229,0.2291,0.2273,0.2307,0.2326,0.2308,0.2306,0.2423,0.2443,0.2462,0.2651,0.2553,0.2561,0.2565,0.3117,0.3129,0.314,0,0,0,0,0,0,0.2153,0.2168,0.2233,0.2209,0.2225,0.2296,0.2274,0.2275,0.2307,0.238,0.2392,0.2356,0.2425,0.245,0.2608,0.2655,0.2564,0.2572,0.3105,0.3121,0.3135,0.2927,0,0,0,0,0,0,0.2144,0.2161,0.2215,0.2211,0.2231,0.2358,0.2278,0.2277,0.2373,0.2372,0.2426,0.2443,0.2428,0.2596,0.2616,0.2665,0.2578,0.3092,0.3112,0.313,0.2921,0.2933,0.2943,0,0,0,0,0,0.2134,0.2147,0.2212,0.2239,0.2282,0.2368,0.2374,0.24,0.2376,0.2419,0.2452,0.2445,0.2736,0.2606,0.2629,0.2681,0.3083,0.3106,0.3128,0.2916,0.2931,0.2943,0,0,0,0,0,0,0.2057,0.2147,0.2216,0.2253,0.238,0.2375,0.2407,0.2453,0.2492,0.2502,0.2508,0.2531,0.2683,0.2787,0.2646,0.2943,0.2938,0.2966,0.277,0.2785,0.2796,0.2791,0.2585,0,0,0,0,0,0.2092,0.2137,0.2254,0.2312,0.2344,0.2398,0.2452,0.2508,0.255,0.2563,0.2584,0.2687,0.2784,0.2865,0.2954,0.3099,0.3086,0.3199,0.321,0.3216,0.3256,0.3245,0.3249,0.3215,0.3215,0.3214,0,0,0.2113,0.2159,0.2207,0.2312,0.2343,0.2373,0.2415,0.2523,0.2563,0.2598,0.2604,0.2699,0.2839,0.2952,0.3045,0.3047,0.3219,0.3245,0.3245,0.3284,0.3268,0.3268,0.3267,0.323,0.3228,0.3225,0,0,0.2118,0.2167,0.2206,0.2267,0.2423,0.2442,0.2507,0.2562,0.2595,0.2711,0.272,0.2863,0.3007,0.3067,0.3134,0.3317,0.3254,0.3415,0.3453,0.3438,0.3433,0.343,0.3323,0.3312,0.344,0.3439,0.3439,0,0.2187,0.2185,0.2253,0.2262,0.2324,0.2462,0.2508,0.2537,0.266,0.2724,0.2741,0.2949,0.3047,0.3173,0.3247,0.3315,0.3278,0.3318,0.3422,0.342,0.3419,0.3312,0.3302,0.3432,0.3433,0.3434,0.3434,0,0.2191,0.2206,0.2199,0.2242,0.2311,0.2389,0.2473,0.2557,0.2638,0.2705,0.2885,0.2987,0.3149,0.3211,0.3274,0.3384,0.3338,0.3372,0.3303,0.3404,0.3292,0.3284,0.3422,0.3424,0.3426,0.3428,0,0,0.2345,0.2244,0.2262,0.2273,0.2325,0.2399,0.2435,0.2575,0.2652,0.2775,0.2858,0.3049,0.3155,0.3259,0.335,0.3374,0.3301,0.3399,0.3402,0.3147,0.3185,0.2922,0.2888,0.3305,0.3306,0.3307,0.3062,0,0.2385,0.2344,0.2311,0.2341,0.2324,0.241,0.2429,0.2577,0.2697,0.2789,0.2949,0.3075,0.3152,0.3265,0.3291,0.3322,0.3295,0.3362,0.3265,0.3262,0.2891,0.2878,0.2843,0.2606,0.3054,0.3053,0.3052,0,0.2439,0.2397,0.2378,0.2372,0.2387,0.2453,0.2593,0.2648,0.2784,0.2881,0.3021,0.3114,0.3222,0.3271,0.3267,0.3296,0.3269,0.3244,0.3233,0.3071,0.2988,0.2624,0.2575,0.3039,0.304,0.3041,0.3042,0,0.2506,0.248,0.2468,0.2458,0.2446,0.2544,0.2615,0.2734,0.2793,0.2965,0.3019,0.3136,0.3202,0.3194,0.3175,0.3233,0.3075,0.3134,0.2837,0.2813,0.2819,0.2794,0.3108,0.3108,0.3109,0.311,0.311,0,0.2523,0.2531,0.253,0.2516,0.2621,0.2622,0.2771,0.2855,0.2939,0.2959,0.3097,0.3097,0.3197,0.3121,0.311,0.2889,0.3006,0.2818,0.2741,0.2746,0.2719,0.3181,0.3193,0.31,0.3102,0.3104,0.3106,0,0.2555,0.2492,0.2515,0.2573,0.2622,0.2729,0.2843,0.2911,0.2989,0.3003,0.3044,0.3067,0.2937,0.2911,0.2845,0.2757,0.2616,0.2515,0.2453,0.2372,0.2377,0.2385,0.216,0.2149,0.2139,0.2131,0.2125,0,0.2539,0.2543,0.2615,0.2641,0.2691,0.2827,0.288,0.2964,0.296,0.2925,0.2872,0.2804,0.2671,0.2405,0.2316,0.213,0.2285,0.1933,0.2068,0.2335,0.2285,0.2307,0.2327,0.1977,0.197,0.1964,0.1959,0,0.2574,0.2623,0.2635,0.2669,0.2749,0.2815,0.2885,0.2872,0.2853,0.2788,0.2616,0.2518,0.229,0.206,0.1815,0.1734,0.1964,0.1792,0.211,0.2197,0.2137,0.2095,0.2127,0.1906,0.1912,0.1916,0.1918,0.1921,0.2645,0.2679,0.2669,0.2719,0.2739,0.2736,0.269,0.2669,0.2558,0.2323,0.2333,0.2054,0.198,0.1538,0.142,0.1364,0.1499,0.1485,0.1517,0.1552,0.1548,0.1473,0.1112,0.1113,0.1114,0.1114,0.1115,0,0.2693,0.2679,0.2707,0.2639,0.2557,0.2669,0.2569,0.2426,0.2157,0.2039,0.184,0.1517,0.132,0.1241,0.1106,0.1027,0.1192,0.0967,0.1251,0.1301,0.1346,0.1348,0.085,0.0848,0.0847,0.0846,0,0,0.2656,0.2639,0.2626,0.245,0.2412,0.2243,0.2147,0.1932,0.1748,0.1451,0.1241,0.1229,0.1196,0.0987,0.0973,0.0901,0.1108,0.087,0.1096,0.1485,0.1529,0.1657,0.1711,0,0,0,0,0]},{"header":{"parameterUnit":"m.s-1","parameterCategory":2,"la1":30.2991,"la2":30.254,"lo1":-89.0895,"lo2":-89.0444,"dy":0.0017,"dx":0.0017,"nx":28,"ny":28,"refTime":"2023-08-10T09:00:00:Z","depth":"2","parameterNumber":3,"parameterNumberName":"V-component_of_CURRENTS"},"data":[0,0,0,0,0,0,0,0,0,0,0,0,0,0,0,0,0,0,0,0,0,0,0,0,0,0,0,0,0,0,0,0,0,0,0,0,0,0,0,0,0,0,0,0,0,0,0,0,0,0,0,0,0,0,0,0,0,0,-0.0369,-0.0367,0,-0.0252,-0.0252,-0.0252,-0.0304,-0.0305,-0.0306,-0.0307,-0.0345,-0.0345,-0.0345,0,0,0,0,0,0,0,0,0,0,0,0,0,-0.0547,-0.0546,-0.037,-0.0366,-0.0363,-0.0252,-0.0252,-0.0253,-0.0304,-0.0305,-0.0306,-0.0308,-0.0345,-0.0345,-0.0345,0,0,0,0,0,0,0,0,0,0,0,0,0,-0.0474,-0.0545,-0.037,-0.036,-0.0356,-0.0252,-0.0252,-0.0253,-0.0304,-0.0305,-0.0307,-0.0308,-0.0345,-0.0345,-0.0345,-0.0317,0,0,-0.0346,-0.0346,0,0,0,0,0,0,0,0,-0.0478,-0.047,-0.0365,-0.036,-0.0356,-0.0276,-0.0327,-0.0275,-0.0303,-0.0346,-0.0307,-0.0309,-0.0322,-0.0324,-0.0326,-0.0318,-0.032,-0.0346,-0.0346,-0.0346,-0.0346,0,0,0,0,0,0,0,-0.0483,-0.0474,-0.0344,-0.0361,-0.0355,-0.0327,-0.0322,-0.0318,-0.0346,-0.0342,-0.034,-0.0294,-0.0324,-0.0326,-0.0327,-0.0321,-0.0346,-0.0346,-0.0346,-0.0346,-0.0015,-0.0007,0,0,0,0,0,0,-0.0458,-0.0479,-0.0348,-0.0339,-0.0398,-0.0322,-0.0317,-0.0317,-0.0343,-0.034,-0.0292,-0.0296,-0.0325,-0.0327,-0.0329,-0.0257,-0.0346,-0.0346,-0.0346,-0.0024,-0.0013,-0.0004,0,0,0,0,0,0,-0.0464,-0.045,-0.0352,-0.0387,-0.037,-0.0316,-0.0317,-0.0314,-0.0305,-0.0299,-0.0305,-0.0284,-0.0326,-0.0329,-0.0304,-0.026,-0.0346,-0.0346,-0.0034,-0.0021,-0.0008,-0.0138,0,0,0,0,0,0,-0.0471,-0.0454,-0.0459,-0.0387,-0.0366,-0.0293,-0.0313,-0.0309,-0.0264,-0.0269,-0.0293,-0.0299,-0.0327,-0.0303,-0.0304,-0.0262,-0.0346,-0.0046,-0.0028,-0.0013,-0.0145,-0.013,-0.0118,0,0,0,0,0,-0.0478,-0.0473,-0.0462,-0.0444,-0.0373,-0.0289,-0.028,-0.0259,-0.0262,-0.0261,-0.0258,-0.0298,-0.0192,-0.0301,-0.0302,-0.026,-0.0054,-0.0033,-0.0014,-0.0151,-0.0133,-0.0119,0,0,0,0,0,0,-0.0554,-0.0472,-0.0461,-0.0434,-0.0363,-0.0291,-0.0275,-0.0244,-0.0239,-0.0246,-0.0265,-0.0269,-0.0216,-0.0166,-0.0284,-0.0074,-0.0095,-0.0075,-0.0197,-0.0181,-0.0168,-0.0123,-0.0347,0,0,0,0,0,-0.0565,-0.0547,-0.0454,-0.0431,-0.04,-0.0335,-0.0298,-0.0268,-0.0231,-0.0232,-0.0243,-0.0187,-0.0125,-0.0109,-0.0063,0.0001,0.002,0.008,0.0093,0.0101,0.0164,0.0183,0.0196,0.0062,0.0062,0.0062,0,0,-0.0572,-0.0531,-0.0515,-0.0444,-0.0402,-0.0334,-0.0325,-0.0257,-0.0197,-0.0234,-0.0204,-0.0182,-0.0091,-0.0026,0.0015,0.0003,0.0157,0.0127,0.013,0.019,0.0204,0.0215,0.0224,0.0076,0.0073,0.0071,0,0,-0.0557,-0.0559,-0.0524,-0.047,-0.0374,-0.0332,-0.0302,-0.0228,-0.0207,-0.0148,-0.0131,-0.008,-0.0007,0.0053,0.0105,0.0252,0.021,0.0317,0.0393,0.0406,0.0412,0.0418,0.0415,0.0422,0.0332,0.0332,0.0332,0,-0.0572,-0.052,-0.0496,-0.0439,-0.0378,-0.0325,-0.0249,-0.0208,-0.0134,-0.0078,-0.0135,0.0042,0.0043,0.0196,0.0247,0.0259,0.0269,0.0263,0.04,0.0408,0.0415,0.0412,0.042,0.0328,0.0328,0.0329,0.0329,0,-0.0504,-0.0468,-0.0443,-0.0365,-0.0308,-0.0238,-0.015,-0.0101,-0.0072,-0.0007,0.0115,0.0119,0.0251,0.0268,0.0275,0.0407,0.0391,0.0367,0.0295,0.0416,0.0411,0.0421,0.0323,0.0324,0.0325,0.0326,0,0,-0.0528,-0.0416,-0.0411,-0.0351,-0.026,-0.0192,-0.0097,0.0036,0.0144,0.017,0.0305,0.0375,0.0398,0.0477,0.0494,0.0505,0.0496,0.0469,0.0472,0.0357,0.0517,0.047,0.0476,0.0454,0.0457,0.0459,0.0466,0,-0.0481,-0.0368,-0.0322,-0.0205,-0.0134,-0.0061,0.0036,0.016,0.024,0.0363,0.0422,0.0536,0.0481,0.0531,0.0538,0.0533,0.0533,0.0498,0.0524,0.0527,0.0373,0.0491,0.0431,0.0433,0.0477,0.0478,0.048,0,-0.0423,-0.0355,-0.024,-0.0094,-0.0055,0.0023,0.0205,0.0304,0.049,0.0563,0.0684,0.0727,0.0819,0.0716,0.0739,0.0714,0.0644,0.0593,0.059,0.0616,0.0502,0.0349,0.045,0.0497,0.0496,0.0495,0.0494,0,-0.0427,-0.0292,-0.0201,-0.0156,0.0007,0.0088,0.0185,0.037,0.0496,0.07,0.0801,0.091,0.0956,0.0914,0.0823,0.0785,0.0796,0.0718,0.0614,0.0607,0.0613,0.0603,0.0727,0.0727,0.0727,0.0727,0.0727,0,-0.0382,-0.0308,-0.0192,-0.0138,0.0009,0.011,0.0303,0.0429,0.0631,0.0801,0.0901,0.1022,0.1,0.1001,0.0898,0.0806,0.0852,0.0678,0.063,0.0573,0.056,0.0683,0.0678,0.0727,0.0727,0.0727,0.0727,0,-0.0373,-0.0313,-0.0202,-0.005,0.0012,0.0116,0.0357,0.0519,0.0682,0.0899,0.0965,0.1114,0.1106,0.1054,0.0979,0.0893,0.0808,0.0748,0.068,0.0626,0.0587,0.0578,0.0664,0.0662,0.0662,0.0661,0.066,0,-0.0357,-0.0299,-0.0157,-0.0068,0.0009,0.0186,0.0339,0.0533,0.0699,0.0941,0.1042,0.1111,0.1146,0.1052,0.0924,0.0778,0.0768,0.065,0.0581,0.0649,0.0592,0.0584,0.0576,0.052,0.0518,0.0517,0.0516,0,-0.0315,-0.0279,-0.0179,0.0005,0.0146,0.0321,0.0528,0.0639,0.0862,0.0984,0.1122,0.1143,0.1088,0.0937,0.0781,0.0679,0.0679,0.0615,0.0736,0.0543,0.0514,0.0457,0.0455,0.0503,0.0504,0.0505,0.0506,0.0507,-0.0305,-0.0219,-0.0074,0.0118,0.0276,0.0452,0.0534,0.0724,0.0879,0.1018,0.1073,0.1052,0.0973,0.0706,0.0617,0.0548,0.0547,0.0487,0.0492,0.0498,0.0478,0.0449,0.0421,0.0422,0.0422,0.0423,0.0424,0,-0.0262,-0.0116,0.0063,0.0247,0.0416,0.0493,0.0673,0.0717,0.0797,0.0926,0.0954,0.0792,0.0666,0.0599,0.0455,0.0383,0.0386,0.0372,0.0375,0.0386,0.0396,0.0372,0.0287,0.0287,0.0287,0.0287,0,0,-0.0226,-0.0047,0.0086,0.036,0.0477,0.0568,0.061,0.0646,0.071,0.074,0.072,0.0722,0.0641,0.0504,0.0415,0.0355,0.0397,0.0345,0.045,0.0473,0.0484,0.0444,0.0416,0,0,0,0,0]}],[{"header":{"parameterUnit":"m.s-1","parameterCategory":2,"la1":30.2991,"la2":30.254,"lo1":-89.0895,"lo2":-89.0444,"dy":0.0017,"dx":0.0017,"nx":28,"ny":28,"refTime":"2023-08-10T09:00:00:Z","depth":"4","parameterNumber":2,"parameterNumberName":"U-component_of_CURRENTS"},"data":[0,0,0,0,0,0,0,0,0,0,0,0,0,0,0,0,0,0,0,0,0,0,0,0,0,0,0,0,0,0,0,0,0,0,0,0,0,0,0,0,0,0,0,0,0,0,0,0,0,0,0,0,0,0,0,0,0,0,-0.0469,-0.0469,0,-0.0458,-0.0458,-0.0457,-0.0446,-0.0446,-0.0446,-0.0446,-0.0303,-0.0299,-0.0295,0,0,0,0,0,0,0,0,0,0,0,0,0,-0.0475,-0.0475,-0.0469,-0.0469,-0.0469,-0.0458,-0.0458,-0.0457,-0.0446,-0.0446,-0.0446,-0.0446,-0.0304,-0.0299,-0.0295,0,0,0,0,0,0,0,0,0,0,0,0,0,-0.0467,-0.0475,-0.0469,-0.0464,-0.0463,-0.0458,-0.0457,-0.0457,-0.0446,-0.0446,-0.0446,-0.0446,-0.0305,-0.03,-0.0294,-0.0257,0,0,-0.0277,-0.0274,0,0,0,0,0,0,0,0,-0.0468,-0.0467,-0.0465,-0.0464,-0.0464,-0.0455,-0.0408,-0.0384,-0.0446,-0.045,-0.0446,-0.0446,-0.0343,-0.0334,-0.033,-0.0251,-0.0244,-0.0276,-0.0273,-0.027,-0.0268,0,0,0,0,0,0,0,-0.0468,-0.0467,-0.0462,-0.0465,-0.0464,-0.046,-0.0459,-0.0403,-0.0392,-0.045,-0.0449,-0.0451,-0.0341,-0.0336,-0.0327,-0.0242,-0.0276,-0.0271,-0.0268,-0.0265,0.0064,0.0069,0,0,0,0,0,0,-0.0474,-0.0468,-0.0463,-0.0462,-0.0468,-0.046,-0.0459,-0.0456,-0.0395,-0.0388,-0.0451,-0.0451,-0.0346,-0.0333,-0.0321,-0.0081,-0.027,-0.0265,-0.0261,0.0059,0.0065,0.0071,0,0,0,0,0,0,-0.0474,-0.0474,-0.0463,-0.0467,-0.0466,-0.046,-0.0457,-0.0456,-0.0417,-0.0399,-0.0388,-0.041,-0.0346,-0.0329,-0.0207,-0.0083,-0.0262,-0.0257,0.0052,0.0061,0.0068,0.0276,0,0,0,0,0,0,-0.0474,-0.0474,-0.0482,-0.0467,-0.0466,-0.0437,-0.0457,-0.0456,-0.0421,-0.0419,-0.036,-0.035,-0.0344,-0.0215,-0.0201,-0.0078,-0.0252,0.0046,0.0056,0.0065,0.0262,0.029,0.0314,0,0,0,0,0,-0.0475,-0.0484,-0.0482,-0.0483,-0.0474,-0.0436,-0.0433,-0.0429,-0.0419,-0.0394,-0.0324,-0.035,-0.0142,-0.0206,-0.0191,-0.0063,0.0041,0.0053,0.0065,0.0251,0.0285,0.0313,0,0,0,0,0,0,-0.0489,-0.0483,-0.0481,-0.0488,-0.0453,-0.0434,-0.0421,-0.0402,-0.0333,-0.0309,-0.0288,-0.027,-0.0116,-0.012,-0.0192,0.0061,-0.0052,-0.0036,0.0085,0.0116,0.0141,0.0078,-0.0248,0,0,0,0,0,-0.0498,-0.0503,-0.0476,-0.0478,-0.0453,-0.0423,-0.0409,-0.0385,-0.0326,-0.0298,-0.0226,-0.0148,-0.0061,0.0,0.0064,0.0201,0.0038,0.0294,0.032,0.0342,0.0303,0.0103,0.0103,0.011,0.011,0.011,0,0,-0.0508,-0.0503,-0.0509,-0.0481,-0.0452,-0.0382,-0.0412,-0.0357,-0.0268,-0.0287,-0.0115,-0.0058,-0.0008,0.0153,0.0223,0.0171,0.0276,0.0357,0.0375,0.0322,0.0115,0.0112,0.011,0.0118,0.0116,0.0115,0,0,-0.0496,-0.0509,-0.0485,-0.0439,-0.0381,-0.0349,-0.0317,-0.0233,-0.0168,-0.0008,0.0013,0.0111,0.029,0.0322,0.0364,0.0558,0.0407,0.0642,0.0736,0.0547,0.0541,0.0534,0.0387,0.0364,0.0666,0.0666,0.0667,0,-0.0501,-0.0459,-0.0469,-0.0401,-0.0345,-0.0316,-0.0222,-0.0154,-0.0024,0.0037,0.0081,0.0282,0.0348,0.0461,0.0582,0.0609,0.0489,0.0619,0.0568,0.0558,0.0546,0.0396,0.0368,0.0678,0.0677,0.0675,0.0674,0,-0.0451,-0.0392,-0.036,-0.0263,-0.0209,-0.0124,-0.0026,0.0075,0.0182,0.0241,0.0402,0.0477,0.0571,0.0661,0.0715,0.0734,0.0673,0.0605,0.0466,0.0555,0.0396,0.0363,0.0694,0.069,0.0687,0.0684,0,0,-0.0487,-0.0351,-0.0327,-0.0246,-0.0113,-0.0059,0.0103,0.023,0.0293,0.0457,0.0517,0.0747,0.075,0.0793,0.0845,0.0751,0.0648,0.0702,0.0687,0.0514,0.0255,0.0469,0.0451,0.0567,0.0562,0.0557,0.0195,0,-0.0416,-0.027,-0.0214,-0.0041,0.0059,0.0146,0.0269,0.038,0.0476,0.0539,0.0601,0.0689,0.081,0.0864,0.0803,0.0655,0.0563,0.0753,0.0228,0.0212,0.0353,0.0421,0.054,0.0169,0.0161,0.0155,0.0151,0,-0.0354,-0.026,-0.0082,0.0083,0.0131,0.0234,0.0386,0.0495,0.0564,0.0633,0.0695,0.0708,0.0708,0.0732,0.0495,0.0618,0.0481,0.0344,0.0323,0.0405,0.0364,0.0048,0.0088,0.0093,0.0098,0.0102,0.0106,0,-0.0352,-0.016,-0.0016,0.0052,0.0233,0.0332,0.0423,0.053,0.0567,0.0646,0.0617,0.0634,0.0559,0.0409,0.0285,0.036,-0.0098,-0.0077,-0.0034,-0.0023,-0.0216,-0.0206,-0.0325,-0.0324,-0.0323,-0.0322,-0.0321,0,-0.0287,-0.017,-0.0003,0.0085,0.0208,0.0345,0.0437,0.0535,0.0559,0.0545,0.064,0.0577,0.0459,0.025,0.0166,-0.0013,-0.0206,-0.0028,-0.0104,-0.01,-0.0073,-0.0238,-0.0223,-0.0336,-0.0333,-0.033,-0.0328,0,-0.0293,-0.0172,-0.0021,0.0174,0.022,0.0307,0.0396,0.042,0.0488,0.0435,0.0448,0.0406,0.0263,0.0119,-0.0203,-0.0194,-0.0386,-0.0422,-0.0405,-0.0476,-0.0154,-0.0123,-0.0393,-0.0388,-0.0384,-0.0381,-0.0378,0,-0.027,-0.0179,-0.0007,0.0038,0.0133,0.0243,0.0282,0.0383,0.0368,0.0345,0.027,0.0167,0.0167,-0.0144,-0.0244,-0.0414,-0.0389,-0.052,-0.026,-0.0114,-0.0165,-0.0139,-0.0114,-0.0372,-0.0371,-0.037,-0.0369,0,-0.024,-0.0183,-0.0101,-0.0016,0.0051,0.0101,0.0164,0.0137,0.0219,0.0206,0.0191,0.0193,0.0016,-0.0063,-0.0204,-0.0321,-0.043,-0.0478,-0.0484,-0.0241,-0.0094,-0.0141,-0.0121,-0.0356,-0.0358,-0.0359,-0.036,0,-0.0254,-0.0234,-0.0144,-0.0063,-0.0022,0.0016,0.0047,0.0082,0.0095,0.0117,0.008,0.0055,0.0001,-0.0028,-0.018,-0.0215,-0.015,-0.0147,-0.0168,-0.0184,0.0078,0.0307,0.0088,0,0,0,0,0,-0.0245,-0.0225,-0.0187,-0.0095,-0.0067,-0.0013,-0.001,0.001,0.0035,0.0054,0.0114,0.0051,0.0052,-0.0004,0.001,-0.0117,-0.0216,-0.0102,-0.0239,-0.0283,-0.0298,0.0007,0,0,0,0,0,0,-0.0251,-0.023,-0.02,-0.0126,-0.0064,-0.0028,-0.0007,0.0,0.0028,0.0064,0.0049,0.0107,0.0054,0.0074,0.0035,0.0018,-0.0053,-0.0113,-0.0111,-0.0275,-0.0288,-0.0301,0.0008,0,0,0,0,0]},{"header":{"parameterUnit":"m.s-1","parameterCategory":2,"la1":30.2991,"la2":30.254,"lo1":-89.0895,"lo2":-89.0444,"dy":0.0017,"dx":0.0017,"nx":28,"ny":28,"refTime":"2023-08-10T09:00:00:Z","depth":"4","parameterNumber":3,"parameterNumberName":"V-component_of_CURRENTS"},"data":[0,0,0,0,0,0,0,0,0,0,0,0,0,0,0,0,0,0,0,0,0,0,0,0,0,0,0,0,0,0,0,0,0,0,0,0,0,0,0,0,0,0,0,0,0,0,0,0,0,0,0,0,0,0,0,0,0,0,0.0105,0.0105,0,0.0079,0.0078,0.0077,0.0134,0.0136,0.0138,0.014,0.0031,0.0027,0.0022,0,0,0,0,0,0,0,0,0,0,0,0,0,0.0117,0.0116,0.0105,0.0105,0.0105,0.0079,0.0078,0.0077,0.0133,0.0136,0.0139,0.0141,0.0033,0.0027,0.0021,0,0,0,0,0,0,0,0,0,0,0,0,0,0.01,0.0116,0.0105,0.0132,0.0135,0.0079,0.0078,0.0077,0.0133,0.0136,0.0139,0.0142,0.0035,0.0028,0.0021,-0.0089,0,0,-0.0002,-0.0005,0,0,0,0,0,0,0,0,0.0101,0.0099,0.0128,0.013,0.0133,0.0116,0.0043,0.0019,0.0132,0.013,0.014,0.0144,0.0052,0.0043,0.0027,-0.0094,-0.0099,-0.0002,-0.0007,-0.001,-0.0012,0,0,0,0,0,0,0,0.0102,0.01,0.0091,0.0128,0.0131,0.0116,0.0118,0.0038,0.0069,0.013,0.0135,0.0137,0.0053,0.0034,0.0025,-0.01,-0.0002,-0.0009,-0.0013,-0.0016,-0.0278,-0.028,0,0,0,0,0,0,0.0113,0.0101,0.0092,0.009,0.0128,0.0114,0.0116,0.0115,0.0072,0.007,0.0134,0.014,0.0045,0.0034,0.0021,-0.0027,-0.001,-0.0017,-0.0021,-0.0275,-0.0278,-0.0281,0,0,0,0,0,0,0.0113,0.0112,0.0093,0.0098,0.0096,0.0112,0.011,0.0113,0.0127,0.0076,0.0073,0.015,0.0047,0.0032,-0.0046,-0.0033,-0.002,-0.0027,-0.0272,-0.0276,-0.028,-0.0178,0,0,0,0,0,0,0.0114,0.0112,0.0133,0.0099,0.0096,0.0066,0.0107,0.011,0.0123,0.013,0.0086,0.0079,0.0049,-0.0035,-0.0053,-0.0043,-0.0033,-0.0269,-0.0274,-0.0279,-0.0178,-0.0178,-0.0177,0,0,0,0,0,0.0114,0.0123,0.0134,0.0135,0.0118,0.0065,0.0061,0.0081,0.0121,0.0109,0.0078,0.0082,-0.0077,-0.0044,-0.0065,-0.0056,-0.0267,-0.0273,-0.0278,-0.0178,-0.0178,-0.0177,0,0,0,0,0,0,0.0132,0.0129,0.0141,0.0149,0.0115,0.0077,0.0088,0.0087,0.0055,0.0076,0.0037,0.0023,-0.0046,-0.0089,-0.005,-0.0154,-0.0169,-0.0179,-0.0086,-0.0086,-0.0086,-0.0059,-0.0039,0,0,0,0,0,0.0145,0.0164,0.0129,0.0137,0.0128,0.011,0.0103,0.01,0.0063,0.0058,0.0025,-0.0026,-0.0098,-0.0115,-0.0197,-0.0254,-0.0286,-0.0266,-0.0265,-0.0264,-0.0263,-0.0388,-0.0397,-0.03,-0.03,-0.03,0,0,0.0152,0.0159,0.0168,0.0145,0.0135,0.01,0.0114,0.0099,0.0076,0.0041,0.0013,-0.0042,-0.0125,-0.0186,-0.0217,-0.0204,-0.0287,-0.0271,-0.0268,-0.0269,-0.0395,-0.0404,-0.0412,-0.0304,-0.0303,-0.0303,0,0,0.0161,0.0182,0.0193,0.0164,0.0149,0.0118,0.0116,0.0076,0.0077,0.003,-0.0012,-0.0075,-0.0141,-0.0217,-0.0257,-0.0322,-0.0304,-0.0316,-0.026,-0.0381,-0.0388,-0.0396,-0.0334,-0.0337,-0.0288,-0.0287,-0.0287,0,0.0173,0.0183,0.018,0.0168,0.0157,0.0127,0.0104,0.0071,0.0012,-0.001,0.0038,-0.0118,-0.0166,-0.0289,-0.0263,-0.0319,-0.0308,-0.0235,-0.0374,-0.0384,-0.0393,-0.0329,-0.0334,-0.0283,-0.0284,-0.0284,-0.0284,0,0.0176,0.0181,0.0181,0.0164,0.0136,0.0113,0.0062,0.0035,0.0053,0.0016,-0.007,-0.0147,-0.0214,-0.0245,-0.0238,-0.0338,-0.0275,-0.0373,-0.0355,-0.0396,-0.0326,-0.0332,-0.0277,-0.0279,-0.028,-0.0281,0,0,0.0208,0.019,0.0196,0.0187,0.0141,0.011,0.0067,0.0001,-0.0025,-0.0064,-0.0118,-0.0196,-0.0193,-0.0243,-0.0285,-0.0359,-0.035,-0.0331,-0.0339,-0.0227,-0.0452,-0.0405,-0.0406,-0.045,-0.0453,-0.0456,-0.0331,0,0.0215,0.0202,0.0193,0.016,0.0135,0.0098,0.0062,-0.0002,-0.0037,-0.0109,-0.0194,-0.0247,-0.0208,-0.0196,-0.0273,-0.0388,-0.0381,-0.0365,-0.0467,-0.0467,-0.0392,-0.0422,-0.0468,-0.0336,-0.0338,-0.0339,-0.034,0,0.0226,0.0215,0.0209,0.0163,0.0156,0.0163,0.0105,0.0068,-0.0054,-0.007,-0.0142,-0.0216,-0.0301,-0.0277,-0.0404,-0.0373,-0.0351,-0.0422,-0.0422,-0.0431,-0.0439,-0.0326,-0.0352,-0.0351,-0.035,-0.035,-0.0349,0,0.0246,0.0221,0.0234,0.022,0.0165,0.0204,0.0209,0.012,0.006,-0.0012,-0.0077,-0.0199,-0.0253,-0.0326,-0.0345,-0.0365,-0.0486,-0.0571,-0.0494,-0.0483,-0.0599,-0.0594,-0.0635,-0.0635,-0.0635,-0.0636,-0.0636,0,0.0239,0.024,0.0284,0.0281,0.0306,0.0294,0.0303,0.0273,0.0177,0.0057,0.0005,-0.0128,-0.0273,-0.0364,-0.0359,-0.04,-0.0468,-0.047,-0.049,-0.0542,-0.0533,-0.0594,-0.0592,-0.0631,-0.0632,-0.0633,-0.0634,0,0.022,0.0254,0.0251,0.0281,0.0321,0.0363,0.0382,0.032,0.0304,0.0135,0.012,-0.0082,-0.0185,-0.0274,-0.041,-0.0415,-0.0471,-0.0437,-0.0333,-0.0351,-0.0359,-0.0353,-0.0396,-0.0394,-0.0392,-0.0391,-0.039,0,0.0195,0.0206,0.0267,0.0299,0.035,0.0424,0.0421,0.0412,0.0296,0.0138,-0.0008,-0.0111,-0.0232,-0.0306,-0.0409,-0.038,-0.039,-0.0327,-0.048,-0.034,-0.0355,-0.0351,-0.0346,-0.0388,-0.0387,-0.0387,-0.0386,0,0.0109,0.0171,0.0159,0.025,0.0313,0.0294,0.0305,0.0258,0.0168,0.0095,-0.0057,-0.0111,-0.0252,-0.0335,-0.0262,-0.0277,-0.0365,-0.0313,-0.0319,-0.0463,-0.0331,-0.0346,-0.0344,-0.0381,-0.0382,-0.0383,-0.0383,0,0.005,0.0029,0.007,0.0179,0.021,0.0197,0.0217,0.0134,0.0076,-0.0072,-0.012,-0.0192,-0.0269,-0.028,-0.0254,-0.0229,-0.0291,-0.0277,-0.0287,-0.0293,-0.0339,-0.0161,-0.0171,0,0,0,0,0,-0.0027,-0.0024,-0.0,0.008,0.0108,0.0161,0.0092,0.0075,0.0016,-0.0077,-0.0073,-0.0162,-0.0175,-0.0225,-0.0196,-0.0303,-0.0319,-0.0273,-0.0313,-0.0352,-0.0358,-0.0433,0,0,0,0,0,0,-0.0092,-0.0099,-0.0045,0.0011,0.0083,0.006,0.0059,0.0005,-0.0046,-0.0077,-0.0083,-0.0111,-0.0139,-0.0146,-0.0168,-0.0183,-0.0198,-0.03,-0.0299,-0.0349,-0.0355,-0.0359,-0.0438,0,0,0,0,0]}]]